Location: Dob?e?
(49.9411°N, 15.1496°E)
Time: 21:11:05
(UTC+00:00)

Cosmos 1408 - Pass Details

Date: 07 June 2020
Orbit: 469 x 495 km, 82.6° (Epoch: 09 July)

Event Time Altitude Azimuth Distance (km) Brightness Sun altitude
Exits shadow 01:49:32 - 195° (SSW) 1,808 4.9 -8.0°
Reaches altitude 10° 01:49:50 10° 195° (SSW) 1,684 4.7 -8.0°
Maximum altitude 01:53:31 73° 281° (W) 519 2.6 -7.6°
Drops below altitude 10° 01:57:13 10° 6° (N) 1,686 6.3 -7.2°
Sets 01:59:19 0° 9° (N) 2,568 7.3 -7.0°
